Weather History for South Lake Tahoe, CA

Change the Weather History Date:

Sunday, February 13, 2011

  Actual Average Record
Temperature  
Mean Temperature 41 °F 30 °F  
Max Temperature 57 °F 44 °F 57 °F (2011)
Min Temperature 24 °F 17 °F -6 °F (1994)
Degree Days  
Heating Degree Days 24 34  
Month to date heating degree days 416 454  
Since 1 July heating degree days 4203 4736  
Cooling Degree Days 0 0  
Month to date cooling degree days 0 0  
Year to date cooling degree days 0 0  
Moisture  
Dew Point 10 °F    
Average Humidity 34    
Maximum Humidity 60    
Minimum Humidity 8    
Precipitation  
Precipitation 0.00 in - 2.41 in (1954)
Month to date precipitation 0.00  
Year to date precipitation 0.42  
Snow  
Snow 0.00 in - - ()
Month to date snowfall 0.0  
Snow Depth 0.00 in    
Sea Level Pressure  
Sea Level Pressure 30.09 in    
Wind  
Wind Speed 3 mph (SSW)    
Max Wind Speed 17 mph    
Max Gust Speed 24 mph    
Visibility 10 miles    
Events      
T = Trace of Precipitation, MM = Missing Value Source: NWS Daily Summary

Daily Weather History Graph

Daily Weather History Graph

Search for Another Location

Airport:

Trip Planner

Search our weather history database for the weather conditions in past years. The results will help you decide how hot, cold, wet, or windy it might be!

Date:

Astronomy

Feb. 13, 2011 Rise Set
Actual Time 6:53 AM PST 5:35 PM PST
Civil Twilight 6:26 AM PST 6:02 PM PST
Nautical Twilight 5:55 AM PST 6:33 PM PST
Astronomical Twilight 5:24 AM PST 7:04 PM PST
Moon 12:40 PM PST (2/13) 3:06 AM PST (2/13)
Length of Visible Light 11h 36m
Length of Day
10h 41m
Waxing Gibbous, 75% of the Moon is Illuminated
Feb 13
Waxing Gibbous
Feb 18
Full
Feb 24
Last Quarter
Mar 4
New
Mar 12
First Quarter

Hourly Weather History & Observations

Time (PST) Temp. Windchill Dew Point Humidity Pressure Visibility Wind Dir Wind Speed Gust Speed Precip Events Conditions
12:53 AM 44.1 °F 38.6 °F -0.0 °F 16% 30.14 in 10.0 mi SSW 10.4 mph 21.9 mph N/A   Clear
1:53 AM 43.0 °F 37.7 °F -0.9 °F 16% 30.13 in 10.0 mi SW 9.2 mph - N/A   Clear
2:53 AM 30.9 °F - 12.0 °F 46% 30.16 in 10.0 mi Calm Calm - N/A   Clear
3:53 AM 28.9 °F - 12.9 °F 51% 30.16 in 10.0 mi Calm Calm - N/A   Clear
4:53 AM 27.0 °F - 12.9 °F 56% 30.17 in 10.0 mi Calm Calm - N/A   Clear
5:53 AM 26.1 °F 21.9 °F 12.9 °F 58% 30.18 in 10.0 mi SSW 3.5 mph - N/A   Clear
6:53 AM 25.0 °F - 12.0 °F 58% 30.18 in 10.0 mi Calm Calm - N/A   Clear
7:53 AM 24.1 °F 18.2 °F 12.9 °F 62% 30.21 in 10.0 mi South 4.6 mph - N/A   Clear
8:53 AM 32.0 °F 27.5 °F 10.9 °F 42% 30.18 in 7.0 mi South 4.6 mph - N/A   Clear
9:53 AM 39.9 °F - 12.0 °F 32% 30.14 in 10.0 mi Calm Calm - N/A   Clear
10:53 AM 46.0 °F 41.9 °F 17.1 °F 31% 30.11 in 10.0 mi NNE 8.1 mph - N/A   Clear
11:53 AM 48.0 °F - 18.0 °F 30% 30.09 in 10.0 mi NNE 6.9 mph - N/A   Clear
12:53 PM 55.0 °F - -2.0 °F 10% 30.03 in 10.0 mi Variable 5.8 mph - N/A   Clear
1:53 PM 55.0 °F - -6.0 °F 8% 30.02 in 10.0 mi SW 6.9 mph - N/A   Clear
2:53 PM 55.9 °F - -6.0 °F 8% 30.02 in 10.0 mi SSW 8.1 mph 18.4 mph N/A   Clear
3:53 PM 55.0 °F - -2.0 °F 10% 30.02 in 10.0 mi SSW 6.9 mph - N/A   Clear
4:53 PM 48.0 °F - 10.0 °F 22% 30.03 in 10.0 mi SSW 4.6 mph - N/A   Clear
5:53 PM 42.1 °F - 19.0 °F 40% 30.05 in 10.0 mi Calm Calm - N/A   Clear
6:53 PM 37.0 °F - 18.0 °F 46% 30.06 in 10.0 mi Calm Calm - N/A   Clear
7:53 PM 34.0 °F - 19.9 °F 56% 30.06 in 10.0 mi Calm Calm - N/A   Clear
8:53 PM 30.9 °F - 18.0 °F 59% 30.04 in 10.0 mi Calm Calm - N/A   Clear
9:53 PM 30.9 °F - 17.1 °F 57% 29.99 in 10.0 mi Calm Calm - N/A   Clear
10:53 PM 30.9 °F - 15.1 °F 52% 29.96 in 10.0 mi Calm Calm - N/A   Clear
11:53 PM 30.9 °F - 14.0 °F 50% 29.93 in 10.0 mi Calm Calm - N/A   Clear